RH
13 11 15 16 14 12 11 11 10 11 15 15 20 25 32 31 30 31 29 30 32 34 32 36 45 68 72 82 81 86 94 93 93 93 98 96 96 89 72 62 65 64 60 60
14 24 21 16 16 18 17 17 19 15 17 16 15 19 29 31 32 32 32 32 34 35 36 38 40 44 72 74 77 83 88 92 93 88 83 88 83 86 84 59 64 70 66 62
20 26 24 22 22 20 25 25 25 24 20 15 14 14 32 34 32 30 28 30 32 36 40 41 41 44 49 71 77 77 85 90 95 89 93 93 86 84 86 78 71 74 66 62
30 26 25 24 29 28 26 29 29 27 25 14 14 9 24 28 30 29 29 30 32 36 38 42 42 42 44 59 70 77 81 88 91 93 94 93 93 89 76 68 64 63 72 65
42 32 29 30 36 32 31 29 29 26 26 25 18 20 12 25 26 32 32 32 32 34 38 43 47 41 39 44 60 82 80 83 86 92 94 96 94 88 82 86 81 70 71 70
35 32 29 32 33 33 28 30 26 27 24 31 18 19 14 36 56 42 35 34 34 32 36 41 43 44 42 40 51 67 80 85 83 91 94 95 92 91 94 94 93 80 81 76
34 35 30 30 28 32 28 30 36 36 37 29 24 22 41 52 51 46 43 38 35 34 37 44 44 45 47 48 51 59 75 82 83 88 94 90 93 92 92 92 91 92 90 86
39 50 36 29 35 37 38 41 41 46 27 23 25 26 51 55 44 45 42 41 36 35 39 42 46 49 50 49 52 61 71 80 82 85 91 96 94 94 95 90 87 86 88 87
47 50 36 33 33 37 44 46 46 60 40 52 22 45 51 51 54 51 55 47 43 39 41 42 45 52 55 53 56 60 70 76 82 84 90 91 94 97 96 90 92 92 91 92
52 66 39 32 36 33 47 41 73 70 69 45 27 39 71 77 80 61 64 65 52 46 44 48 48 56 57 55 59 61 71 71 84 83 86 84 80 90 97 98 97 93 93 98
51 56 55 34 58 74 42 48 43 56 56 65 61 79 69 71 57 63 47 63 66 55 51 57 60 56 60 58 57 65 76 78 84 83 80 80 81 83 86 92 95 95 91 90
55 51 56 48 42 38 44 46 46 65 79 81 81 78 41 41 42 43 40 46 59 53 58 62 67 63 60 63 63 67 78 85 82 80 77 77 80 81 81 79 80 80 83 88
48 43 48 62 50 42 54 45 39 44 54 75 84 79 28 33 42 46 40 36 37 54 71 69 71 75 72 68 74 82 74 76 81 84 78 74 77 76 75 73 72 72 75 80
40 41 72 69 89 73 78 47 36 38 52 59 49 54 36 48 51 42 41 36 38 44 71 79 76 83 84 90 77 94 88 74 80 76 85 72 72 67 65 64 65 68 70 72
45 70 60 70 77 48 58 54 41 40 42 51 62 55 46 58 56 45 40 34 37 48 64 67 83 96 93 93 92 87 96 87 80 76 74 70 63 59 59 61 60 62 64 62
47 81 74 76 61 51 64 56 47 37 46 55 54 44 39 43 39 41 39 39 44 52 57 53 58 97 96 95 96 92 78 84 83 79 73 64 61 58 58 58 62 62 62 58
59 82 78 82 63 57 63 77 74 71 82 87 79 89 58 57 55 54 59 49 55 54 52 50 53 72 96 96 93 92 80 81 85 82 72 68 66 63 64 59 59 63 69 70
68 64 67 78 84 83 92 90 94 82 78 93 93 96 94 82 53 53 57 75 67 67 62 62 62 65 73 89 84 82 84 90 91 85 75 72 71 70 74 70 73 78 78 73
50 54 79 88 69 71 47 82 90 87 76 100 99 100 100 66 52 61 81 92 96 100 85 94 76 67 59 81 86 87 95 95 94 86 81 76 76 72 70 73 75 75 76 75
50 54 72 80 79 64 81 83 46 62 51 59 100 100 100 91 76 89 100 100 99 99 100 100 94 81 70 79 93 93 95 96 94 93 84 78 78 80 82 84 84 81 81 87
59 67 83 66 66 47 85 46 40 53 67 66 74 97 100 92 97 100 100 100 100 100 100 98 98 100 96 87 89 93 94 97 94 92 84 83 80 84 84 85 86 87 88 87
71 73 74 54 60 64 55 44 61 86 47 43 40 44 81 97 100 100 100 100 100 100 100 100 100 100 100 98 92 100 97 94 84 83 87 85 86 81 79 84 85 86 88 89
81 88 68 82 87 85 59 100 61 49 44 38 37 34 35 37 37 54 95 99 70 80 66 65 100 100 100 100 92 96 98 86 85 84 83 87 76 74 80 83 85 89 86 89
48 39 48 64 62 52 45 40 40 40 42 31 31 32 32 29 28 29 37 38 38 37 40 44 77 98 97 98 99 68 61 60 70 96 99 86 83 81 81 76 83 87 88 91
35 44 44 43 37 38 36 32 35 35 35 33 31 31 32 28 27 27 27 30 29 29 30 39 77 68 58 54 60 54 52 55 53 56 61 69 83 78 77 77 81 80 88 85
35 47 52 65 36 35 32 33 32 34 33 30 29 31 30 28 26 27 24 26 25 25 28 28 34 38 40 42 46 46 50 48 53 54 54 61 56 55 55 60 72 84 82 80
Wind_Speed
9 9 10 11 10 7 3 2 0 4 6 7 1 1 3 5 7 10 12 13 14 15 15 16 15 14 16 15 17 18 20 8 7 8 8 10 11 8 9 10 13 13 12 13
9 12 7 6 6 5 3 1 3 2 3 7 3 7 4 3 8 10 12 13 14 15 16 16 17 16 14 15 15 15 14 15 10 10 10 7 10 9 7 9 10 11 13 12
11 8 3 4 6 3 6 6 4 6 9 6 7 14 12 7 3 5 10 12 13 15 16 17 18 18 15 14 15 15 15 15 13 13 7 5 7 8 9 10 8 11 14 15
10 5 3 2 7 9 3 5 5 7 8 6 1 5 12 9 5 6 11 14 15 16 15 15 16 17 17 13 13 14 15 16 14 18 12 12 10 9 10 12 11 13 15 15
6 6 6 6 6 7 7 8 8 8 10 9 14 8 5 7 7 9 11 14 16 17 16 17 16 16 16 15 13 12 15 16 17 18 12 10 12 9 8 5 11 15 14 17
9 4 8 9 4 2 10 8 11 8 9 11 13 10 4 5 6 10 12 14 15 18 18 16 16 16 14 15 15 15 15 15 18 17 11 12 15 13 8 9 9 10 9 12
6 9 4 11 6 4 11 8 5 6 7 6 5 7 5 7 7 10 13 15 15 15 17 18 19 18 16 16 16 14 15 16 18 17 17 15 14 14 15 14 11 11 9 10
4 7 10 10 7 8 6 7 5 6 5 6 9 9 8 5 7 10 13 13 14 15 15 17 18 17 17 17 16 16 14 16 17 16 16 12 7 10 10 12 11 9 8 8
5 6 4 8 5 8 5 1 3 6 11 9 10 7 9 3 12 14 14 15 15 16 16 17 18 16 17 16 16 15 15 13 14 15 13 11 6 5 7 14 10 8 6 4
3 2 3 4 2 6 5 5 4 5 6 9 7 8 0 10 14 16 16 13 16 16 16 16 16 16 15 16 14 13 13 12 12 13 10 10 9 5 5 2 6 7 7 5
1 3 5 6 5 5 3 3 3 4 7 8 11 3 2 7 11 13 14 10 13 16 15 15 15 15 15 14 13 12 11 12 10 12 9 10 8 6 5 3 4 1 8 10
1 3 1 3 3 3 3 4 3 5 2 4 6 6 3 9 12 12 16 13 13 15 15 16 15 15 15 14 12 12 9 10 9 10 10 10 8 5 5 6 6 4 2 3
1 2 4 9 7 5 3 4 6 9 8 12 7 1 4 7 12 11 12 13 13 14 14 16 16 14 14 13 12 10 10 9 10 8 11 7 6 4 4 3 2 3 3 3
4 2 4 5 2 2 4 3 4 6 6 8 9 13 13 13 13 13 13 14 14 13 13 14 16 14 13 11 12 9 9 9 7 9 9 7 4 3 3 4 3 0 1 1
3 3 1 2 3 5 5 5 4 3 6 7 10 12 12 11 13 12 9 12 13 13 13 14 15 12 13 11 10 10 8 7 7 7 8 6 4 4 3 3 3 3 3 3
2 2 3 4 9 9 10 11 10 8 8 10 12 12 11 12 13 14 12 13 14 13 13 14 15 12 11 10 8 10 10 8 8 5 5 5 3 4 2 3 4 4 3 3
3 4 4 3 4 9 13 15 14 8 7 6 8 8 10 13 12 12 10 12 13 13 14 14 14 11 9 10 10 11 10 9 8 6 5 4 4 3 4 3 3 3 4 5
4 5 3 2 3 6 4 2 3 10 8 8 11 12 10 11 12 8 7 9 11 12 13 13 12 14 11 10 10 8 8 8 7 5 4 6 5 4 4 4 4 4 4 5
6 5 3 5 6 3 7 5 6 7 7 9 10 8 7 9 11 3 5 6 7 7 10 9 12 12 13 11 11 9 9 8 8 8 9 8 7 6 5 4 5 4 4 4
6 7 6 2 5 5 3 5 7 5 8 8 5 7 7 7 5 5 4 4 6 6 7 8 10 11 12 12 10 7 6 6 10 10 8 8 8 8 7 8 7 6 5 7
5 5 10 8 6 3 5 7 7 7 5 4 5 6 4 4 3 6 6 5 3 4 4 6 6 6 9 11 10 9 9 9 9 9 9 9 9 10 9 9 9 9 9 9
4 4 5 4 5 5 11 10 7 2 2 4 3 2 4 5 6 4 5 6 7 7 7 5 5 6 7 9 9 9 10 8 8 9 11 12 11 9 9 11 10 11 9 10
5 5 3 5 2 3 16 2 10 6 6 4 3 2 3 4 4 4 5 6 7 5 6 6 5 6 5 6 7 7 5 6 8 8 9 9 11 11 13 13 11 9 10 8
6 8 6 3 5 12 13 13 10 10 9 6 5 3 3 4 3 3 4 6 6 6 7 7 7 7 7 5 6 7 8 7 7 7 7 9 10 12 10 8 8 8 8 7
5 10 9 10 11 6 14 16 14 14 11 9 7 6 4 4 3 4 4 4 4 4 4 4 0 5 6 7 8 8 8 7 7 7 6 6 6 7 8 10 8 8 9 8
11 10 8 6 9 9 8 17 16 14 14 12 9 8 6 5 4 3 4 2 2 1 1 1 2 3 4 5 5 6 6 6 5 5 5 5 5 5 5 5 7 10 11 11
Wind_Direction
26 78 58 53 50 58 80 85 355 89 23 312 337 179 65 41 36 29 22 16 17 15 11 6 5 15 1 1 360 357 351 205 192 171 183 169 186 194 194 206 209 199 198 190
114 70 60 67 52 51 40 324 57 151 356 303 229 238 175 79 55 39 20 14 9 4 4 4 360 1 10 0 356 347 346 328 271 203 192 185 185 182 192 215 198 207 202 193
57 73 61 41 43 359 40 16 9 329 318 232 267 246 190 166 108 41 25 10 7 3 357 358 355 355 1 359 351 347 338 321 302 240 185 169 185 182 181 207 208 196 206 201
65 68 42 60 68 343 246 15 301 287 295 284 230 277 183 166 186 45 12 5 358 356 355 353 352 350 347 355 347 342 340 327 312 287 183 176 186 187 200 209 191 209 208 209
82 57 21 43 16 335 32 318 285 281 269 281 234 251 162 164 183 4 3 358 355 349 348 349 346 346 342 342 349 342 339 334 325 313 194 188 193 211 205 176 200 216 206 213
85 79 40 6 334 330 322 278 243 259 258 240 254 217 254 73 358 337 347 345 347 346 341 342 342 340 343 341 343 344 346 337 331 325 243 198 205 198 203 192 198 204 198 212
137 64 82 7 304 173 337 300 262 218 200 263 57 251 35 80 12 352 344 342 339 343 340 335 338 338 336 339 338 341 344 339 333 333 327 212 205 210 202 196 197 192 198 199
334 159 16 8 27 328 330 324 331 288 305 320 160 245 103 90 3 345 339 341 339 339 340 334 332 332 328 330 333 335 340 338 333 336 330 328 251 209 214 212 206 198 201 199
330 108 111 41 28 340 15 29 5 290 243 250 247 135 166 338 346 341 338 333 336 337 335 331 331 328 324 323 326 331 331 334 332 327 330 320 344 352 237 200 192 189 195 206
59 209 55 101 241 47 349 348 229 195 270 271 234 244 204 354 338 338 334 340 334 329 330 332 328 325 321 315 316 324 328 329 326 322 313 320 315 12 343 283 198 181 172 171
331 281 105 195 44 28 36 19 306 279 279 285 288 68 55 324 325 322 324 339 336 320 328 334 326 319 317 309 315 319 326 328 322 327 312 313 322 359 334 41 88 349 237 227
47 316 55 99 112 215 350 5 295 287 278 281 293 291 297 337 324 331 329 341 325 326 338 331 329 320 314 314 318 321 323 321 317 310 308 305 315 352 345 1 43 59 29 5
103 193 232 172 188 191 259 315 308 282 254 262 286 236 353 338 347 332 314 339 335 337 333 329 331 324 319 323 321 320 320 318 322 311 302 300 299 315 347 338 39 55 44 3
276 331 298 319 43 89 215 306 327 330 267 314 276 305 318 354 328 333 340 342 331 333 338 330 324 323 323 322 320 321 313 317 306 312 302 274 280 292 333 335 338 61 255 257
266 252 247 279 232 222 233 259 284 321 285 296 327 309 330 331 320 327 326 331 336 346 334 328 323 319 319 320 317 321 318 311 297 292 307 308 313 299 312 329 333 335 316 291
180 195 192 247 224 246 256 243 253 263 272 265 287 294 10 329 333 336 331 339 337 338 327 322 327 318 321 317 317 324 327 328 302 295 296 279 284 280 306 309 309 304 291 258
215 160 197 251 254 272 257 237 224 231 251 275 283 331 319 329 336 326 335 328 330 329 329 326 325 335 331 334 336 332 334 333 337 309 358 345 325 352 347 330 327 320 321 315
181 215 221 307 221 241 66 25 115 229 253 232 266 279 293 305 326 322 359 333 326 327 330 331 333 331 346 343 337 343 354 350 346 349 14 25 17 22 13 9 16 356 346 303
237 238 256 275 262 295 186 187 188 204 276 215 246 274 295 319 308 122 20 333 316 324 328 330 329 333 343 354 341 7 359 0 12 18 21 13 12 13 7 12 3 355 337 339
209 245 255 266 279 272 88 166 178 166 252 169 209 275 298 323 330 322 344 318 310 331 322 318 329 338 348 352 344 15 32 12 20 15 22 26 36 30 36 30 20 6 27 65
215 236 242 246 266 259 137 167 174 238 69 158 206 256 274 298 283 303 311 316 304 295 298 337 337 340 343 350 353 19 20 15 24 30 41 42 44 51 49 54 48 48 55 62
225 216 214 229 246 254 152 161 224 73 178 226 245 271 227 243 266 278 299 313 323 334 340 357 349 349 354 1 4 15 15 9 25 35 44 47 50 50 50 54 52 52 55 55
233 226 297 233 275 130 182 160 206 202 244 235 263 276 295 289 307 273 302 314 311 323 333 344 338 339 350 4 17 16 14 30 37 35 53 59 62 68 56 52 55 51 49 53
221 210 239 259 231 211 198 215 215 214 232 229 237 259 269 298 302 287 288 315 322 337 341 357 4 335 353 19 358 23 29 36 61 56 53 49 53 58 55 66 59 49 50 48
252 163 226 243 243 212 218 213 207 212 219 226 229 223 241 256 264 279 283 289 312 321 335 331 308 320 9 17 17 21 20 24 41 50 57 72 80 73 80 61 50 69 56 47
182 196 194 225 198 201 200 199 201 202 206 212 213 205 214 232 240 237 241 239 281 308 341 346 5 14 28 31 41 35 23 26 35 55 60 41 63 66 70 95 102 82 86 74